AO-07 1 07530U 74089B 16062.92038300 -.00000012 00000-0 19666-3 0 9998 2 07530 101.5617 036.3205 0012069 155.9022 266.9687 12.53619942889572 FO-29 1 24278U 96046B 16063.42945854 -.00000013 00000-0 19495-4 0 9992 2 24278 98.5795 2.5028 0351273 116.4030 247.3611 13.53064302965215 RS-22 1 27939U 03042A 16063.77242677 .00000570 00000-0 11150-3 0 9990 2 27939 97.8700 219.6043 0011788 281.5722 78.4152 14.66337346664376 HO-68 1 36122U 09072B 16063.63875379 -.00000059 00000-0 -43517-4 0 9996 2 36122 100.1581 103.7120 0007279 235.8780 124.1644 13.16332952298729 AO-73 1 39444U 13066AE 16063.69401290 .00000765 00000-0 10278-3 0 9996 2 39444 97.6952 121.4958 0059100 7.1465 353.0576 14.80897813121969 EO-79 1 40025U 14033R 16063.68106111 .00000984 00000-0 11365-3 0 9992 2 40025 97.9362 329.1341 0013968 54.1191 306.1319 14.87834795 92516 XW-2A 1 40903U 15049E 16063.71369251 .00004638 00000-0 13668-3 0 9993 2 40903 97.4514 77.6289 0017048 146.6502 303.3378 15.35405552 25369 XW-2C 1 40906U 15049H 16063.72880358 .00001953 00000-0 11346-3 0 9991 2 40906 97.4556 73.1013 0017383 45.9200 41.4514 15.13150909 25059 LILACSAT-2 1 40908U 15049K 16063.67275019 .00001245 00000-0 75429-4 0 9996 2 40908 97.4619 73.0109 0017845 39.7980 52.3806 15.12274706 25039 XW-2E 1 40909U 15049L 16063.81458625 .00003420 00000-0 19196-3 0 9994 2 40909 97.4552 73.3049 0016695 48.9855 75.2844 15.13893173 25073 UO-11 1 14781U 84021B 16063.75756571 .00000265 00000-0 39240-4 0 9990 2 14781 97.7642 118.9113 0007272 305.1960 54.8572 14.82685166720630 LO-19 1 20442U 90005G 16063.82741476 .00000038 00000-0 29718-4 0 9993 2 20442 98.5362 0.2793 0012929 96.8848 263.3807 14.32801306364262 AO-27 1 22825U 93061C 16062.86714145 .00000058 00000-0 40091-4 0 9990 2 22825 098.7463 018.5336 0007306 269.4953 090.5392 14.29941563169770 IO-26 1 22826U 93061D 16062.86567164 .00000059 00000-0 40173-4 0 9990 2 22826 98.7406 18.6683 0007840 259.6180 100.4119 14.30264525170206 GO-32 1 25397U 98043D 16063.43236056 .00000027 00000-0 30434-4 0 9992 2 25397 98.5558 11.1836 0000502 355.3116 4.8058 14.23585239916811 NO-44 1 26931U 01043C 16062.91755045 .00000030 00000-0 43400-4 0 9998 2 26931 067.0499 227.0709 0007481 270.2497 089.7746 14.30389676752873 SO-50 1 27607U 02058C 16063.67735966 .00000340 00000-0 68853-4 0 9993 2 27607 64.5547 123.2008 0077234 238.5765 120.7770 14.75084575709703 CO-55 1 27844U 03031E 16062.98877533 .00000136 00000-0 81495-4 0 9998 2 27844 98.6950 72.7919 0008589 269.9475 90.0718 14.21920733657354 CO-57 1 27848U 03031J 16063.70793201 .00000117 00000-0 73212-4 0 9999 2 27848 98.7046 73.5410 0008498 276.6972 83.3238 14.21551122657350 CO-65 1 32785U 08021C 16063.22170535 .00000701 00000-0 83196-4 0 9996 2 32785 97.6162 101.7815 0011809 289.6212 70.3730 14.87426148424870 PRISM 1 33493U 09002B 16063.64061536 .00001793 00000-0 17121-3 0 9995 2 33493 98.2294 278.6999 0015002 189.8752 170.2166 14.94599521385464 TISAT-1 1 36799U 10035E 16063.79927100 .00001425 00000-0 15535-3 0 9998 2 36799 98.0214 172.5331 0013865 74.5941 285.6806 14.89550514305730 ALMASAT-1 1 38078U 12006B 16062.93903799 .00023689 36120-5 34030-3 0 9997 2 38078 069.4537 297.5430 0414410 253.4422 102.0882 14.96013327213652 DUCHIFAT-1 1 40021U 14033M 16063.79278678 .00001398 00000-0 15418-3 0 9991 2 40021 97.9388 330.0779 0014619 52.7292 307.5256 14.89047990 92572 NANOSATCBR1 1 40024U 14033Q 16063.73288416 .00001207 00000-0 13587-3 0 9993 2 40024 97.9366 329.5445 0013830 52.8775 307.3703 14.88492887 92545 DTUSAT-2 1 40030U 14033W 16063.70370537 .00000944 00000-0 11024-3 0 9994 2 40030 97.9344 328.6961 0013307 48.4770 311.7585 14.87469817 92493 ANTELSAT 1 40034U 14033AA 16063.75915031 .00000644 00000-0 10476-3 0 9994 2 40034 97.9167 314.7192 0059997 5.3911 354.7923 14.73253757 91655 MET-2/21 1 22782U 93055A 16062.94708647 .00000056 00000-0 37759-4 0 9999 2 22782 082.5489 037.5384 0021514 315.3577 096.8794 13.83784195136252 NOAA-15 1 25338U 98030A 16063.53214863 .00000070 00000-0 48231-4 0 9998 2 25338 98.7829 67.4730 0011486 129.2494 230.9707 14.25706898925930 NOAA-18 1 28654U 05018A 16063.57212831 .00000069 00000-0 62968-4 0 9994 2 28654 99.1978 67.7561 0013569 313.8259 46.1789 14.12271063555824 NOAA-19 1 33591U 09005A 16063.50991889 .00000164 00000-0 11435-3 0 9998 2 33591 99.0273 19.4910 0014348 152.8623 207.3301 14.12046262364225 HUBBLE 1 20580U 90037B 16063.21627315 .00001302 00000-0 70811-4 0 9994 2 20580 28.4691 238.4512 0002935 146.4020 199.3680 15.08201509219096 ISS 1 25544U 98067A 16063.85205029 .00007024 00000-0 11228-3 0 9997 2 25544 51.6424 223.3270 0003333 190.1315 281.8711 15.54368576988592 CO-58 1 28895U 05043F 16063.16581976 .00000461 00000-0 98163-4 0 9995 2 28895 97.8255 242.4738 0016751 189.9560 170.1313 14.63115748551601 CAPE1 1 31130U 07012P 16063.83584173 .00000376 00000-0 91036-4 0 9992 2 31130 98.0204 23.2727 0095710 223.5185 135.8434 14.55847262470805 AAUSAT2 1 32788U 08021F 16063.75905252 .00001493 00000-0 14908-3 0 9992 2 32788 97.6176 110.0538 0010747 260.5664 99.4341 14.92917945425464 DO-64 1 32789U 08021G 16063.73474640 .00003621 00000-0 27706-3 0 9998 2 32789 97.6165 124.7929 0012249 258.8139 101.1709 15.02470654426165 CO-66 1 32791U 08021J 16062.85888290 .00001062 00000-0 11678-3 0 9991 2 32791 97.6174 104.2355 0012164 279.8812 80.1033 14.89562594424962 RS-30 1 32953U 08025A 16063.76755518 .00000010 00000-0 -13620-7 0 9998 2 32953 82.5063 172.2014 0018590 228.6441 131.3047 12.43067433352984 JUGNU 1 37839U 11058B 16063.34153738 .00000349 00000-0 44226-4 0 9993 2 37839 19.9618 65.3061 0019080 34.2685 111.9227 14.12525579227042 SRMSAT 1 37841U 11058D 16062.44698291 .00000345 00000-0 44659-4 0 9990 2 37841 19.9720 102.7259 0011698 300.4306 188.4816 14.10527314226598 AO-71 1 37854U 11061E 16063.17512077 .00008121 00000-0 45984-3 0 9997 2 37854 101.7077 52.3048 0176205 26.4682 334.5396 15.01273106236182 HRBE 1 37855U 11061F 16063.78457695 .00008592 00000-0 47625-3 0 9995 2 37855 101.7187 51.3723 0189738 28.1100 333.0198 15.00177913236185 HORYU-2 1 38340U 12025D 16063.81867217 .00000855 00000-0 13551-3 0 9990 2 38340 98.3464 46.0532 0011665 354.4402 5.6675 14.74885221203944 RS-40 1 38735U 12041C 16063.58608509 .00000040 00000-0 21992-3 0 9991 2 38735 82.4707 257.6038 0016675 335.9533 24.0754 12.42571866163254 BEESAT-3 1 39134U 13015E 16063.80432435 .00004111 00000-0 22797-3 0 9992 2 39134 64.8723 301.8754 0011879 236.0911 123.9085 15.15147175158142 BEESAT-2 1 39136U 13015G 16063.78690472 .00002491 00000-0 14015-3 0 9991 2 39136 64.8732 306.7769 0011207 234.1586 125.9003 15.12976658158051 ZACUBE-1 1 39417U 13066B 16063.15648990 .00000638 00000-0 88040-4 0 9999 2 39417 97.6943 120.4897 0059962 10.4620 349.7824 14.80258146123089 TRITON-1 1 39427U 13066M 16063.10506602 .00000607 00000-0 10574-3 0 9990 2 39427 97.6808 103.1113 0116154 57.1505 304.0819 14.67078692121960 GOMX-1 1 39430U 13066Q 16063.81310871 .00000451 00000-0 90953-4 0 9990 2 39430 97.6807 92.7301 0154215 88.1352 273.7491 14.58478625121361 LO-74 1 39440U 13066AA 16063.12766086 .00000606 00000-0 92611-4 0 9993 2 39440 97.6883 113.5742 0081917 28.1167 332.4431 14.75031578122643 SPROUT 1 39770U 14029E 16062.85155800 .00002016 00000-0 24236-3 0 9998 2 39770 97.8682 161.3348 0010637 76.7387 283.5007 14.85010048 96156 EO-80 1 40032U 14033Y 16063.72503771 .00000950 00000-0 11112-3 0 9991 2 40032 97.9351 328.7278 0013270 48.6816 311.5539 14.87401367 92490 VELOX-1 1 40057U 14034E 16063.69338548 .00000859 00000-0 13078-3 0 9994 2 40057 98.1963 150.9223 0012497 123.0537 237.1879 14.76527003 90315 DAURIA DX 1 1 40071U 14037C 16063.72638995 .00000362 00000-0 54409-4 0 9999 2 40071 98.3334 150.5737 0009653 119.6475 240.5707 14.80730701 89348 UKUBE-1 1 40074U 14037F 16063.68540068 .00000800 00000-0 10593-3 0 9992 2 40074 98.3368 152.2333 0005799 121.8061 238.3729 14.82890630 89431 HODOYOSHI-1 1 40299U 14070B 16063.69357008 .00001999 00000-0 93434-4 0 9995 2 40299 97.4347 146.9604 0012406 305.3650 202.1866 15.20890112 73391 CHUBUSAT-1 1 40300U 14070C 16063.72856949 .00002068 00000-0 10063-3 0 9994 2 40300 97.4312 145.5193 0020231 309.4050 167.9061 15.19351385 73317 QSAT-EOS 1 40301U 14070D 16063.69668264 .00003993 00000-0 18576-3 0 9997 2 40301 97.4257 144.7251 0028755 308.9776 203.9010 15.20166712 73270 FIREBIRD FU3 1 40377U 15003B 16063.78093105 .00008710 00000-0 40000-3 0 9992 2 40377 99.0845 150.7408 0148202 117.6047 244.0317 15.11372654 59859 FIREBIRD FU4 1 40378U 15003C 16063.77796783 .00008418 00000-0 38627-3 0 9991 2 40378 99.0847 150.7479 0148452 117.5516 244.0881 15.11385295 59858 GRIFEX 1 40379U 15003D 16063.79807059 .00006931 00000-0 33030-3 0 9994 2 40379 99.0851 150.2300 0151642 120.1856 241.4488 15.09870909 59834 NO-84 1 40654U 15025X 16062.51969387 .00021226 00000-0 46568-3 0 00496 2 40654 054.9928 168.5674 0218970 167.7193 192.9344 15.22617789007777 NO-83 1 40655U 15025X 16062.27430453 .00030142 00000-0 61966-3 0 00549 2 40655 054.9891 166.4679 0205366 167.7215 192.8884 15.26311446007750 DEORBITSAIL 1 40719U 15032E 16063.22342123 .00001140 00000-0 17551-3 0 9995 2 40719 98.0299 315.7236 0015752 214.0195 146.0005 14.75314806 34865 NUDT-PHONESAT 1 40900U 15049B 16063.72888484 .00005450 00000-0 28845-3 0 9991 2 40900 97.4474 73.3926 0017390 65.0421 22.4531 15.15713348 25099 XW-2D 1 40907U 15049J 16063.80484088 .00002139 00000-0 12394-3 0 9992 2 40907 97.4516 73.0958 0016620 44.6641 79.5611 15.13158925 25068 XW-2F 1 40910U 15049M 16063.72581162 .00003019 00000-0 17203-3 0 9990 2 40910 97.4545 73.1003 0017876 43.5126 44.6249 15.13427453 24947 XW-2B 1 40911U 15049N 16063.80353272 .00002059 00000-0 11941-3 0 9995 2 40911 97.4566 73.2030 0016554 44.6291 79.7048 15.13156487 24963 DCBB 1 40912U 15049P 16063.72757314 .00003474 00000-0 18729-3 0 9995 2 40912 97.4558 73.5660 0018095 41.0757 46.6147 15.15301339 24982 TW-1C 1 40926U 15051B 16063.81679597 .00010826 00000-0 32835-3 0 9992 2 40926 97.2889 101.9673 0017129 69.6708 17.1390 15.34146307 24594 TW-1A 1 40928U 15051D 16063.77585188 .00004782 00000-0 15595-3 0 9999 2 40928 97.2834 101.5945 0016493 82.8508 7.3014 15.32146105 24578 IO-86 1 40931U 15052B 16063.49776813 .00000782 00000-0 20083-4 0 9995 2 40931 6.0014 348.6286 0013433 61.0046 299.1606 14.76430718 23287 AAUSat-5 1 40948U 98067GZ 16063.64221514 .00520328 12142-3 12922-2 0 9997 2 40948 51.6286 208.5236 0008028 291.3673 68.6478 15.95238498 23547 GomX-3 1 40949U 98067HA 16063.70759733 .00038039 00000-0 34012-3 0 9999 2 40949 51.6370 215.8378 0005764 201.7490 158.3263 15.67967443 23464 LQSat 1 40958U 15057A 16063.67005303 .00000177 00000-0 35466-4 0 9997 2 40958 98.0232 139.9159 0019306 129.1491 231.1438 14.72821799 21853 AO-85 1 40967U 15058D 16061.38224501 .00001377 00000-0 15970-3 0 00561 2 40967 064.7784 212.7077 0213868 238.5296 119.4771 14.74796139007371 ATHENOXAT-1 1 41168U 15077C 16063.06021213 .00004559 00000-0 23761-3 0 9996 2 41168 14.9903 5.7811 0013510 334.5407 117.0304 15.09209059 11699 AGGIESAT4 1 41313U 98067HP 16063.49502243 .00017745 00000-0 25831-3 0 9993 2 41313 51.6471 224.9193 0005862 177.8477 182.2552 15.55805511 5253 ChubuSat-2 1 41338U 16012B 16063.66544919 .00000107 00000-0 85330-5 0 9991 2 41338 31.0043 219.5600 0015197 83.5983 276.6623 14.99216661 2306 ChubuSat-3 1 41339U 16012C 16063.72954763 .00000957 00000-0 69337-4 0 9992 2 41339 31.0095 219.1239 0013747 89.2458 270.9756 14.99457215 2280 Horyu-4 1 41340U 16012D 16063.46041262 .00001591 00000-0 11885-3 0 9995 2 41340 31.0054 220.7934 0014236 90.5625 269.6662 14.99750262 2269 /EX
